User: anonymous   Login
Location: Unspecified
(49.8670°N, 0.0000°E)
Time: 23:24:57
(UTC+00:00)
Language:

deb Explorer IX - Orbit

View from above orbital plane
View from above orbital plane
View from above satellite
View from above satellite

Ground track
Ground track

The orbit data is extracted from the following two-line orbital elements,

1    85U 61004C   19170.10074240  .00001692  00000-0  36609-3 0  9995
2    85  38.7762  78.1105 0401586 233.7971 122.5007 14.19792572879262
Epoch (UTC): 19 June 2019 02:25:04
Eccentricity: 0.0401586
inclination: 38.7762°
perigee height: 537 km
apogee height: 1115 km
right ascension of ascending node: 78.1105°
argument of perigee: 233.7971°
revolutions per day: 14.19792572
mean anomaly at epoch: 122.5007°
orbit number at epoch: 87926

The dashed part of the orbit path shows where the satellite is in the earth's shadow,  

DLR